When you browse on this site, cookies collect data to enhance your experience and personalize the content and advertising you see.
Visit our Privacy Policy to learn more. By continuing to use the site, you agree to this use of cookies and data.
  • In Germany
  • List of Countries
  • For 7 days
  • Water Temperature
  • Weather Map
  • Weather Widgets
  • user-avatar
    Login

    Hourly Weather San Juan

    Today, 15 October, Tuesday

    Time Temperature Precipitation Wind Pressure Humidity
    00:00 +4°C° 0 mm 3 mps 710 mmHg 79%
    01:00 +4°C° 0 mm 3 mps 710 mmHg 79%
    02:00 +4°C° 0 mm 3 mps 710 mmHg 79%
    03:00 +5°C° 0 mm 2 mps 710 mmHg 79%
    04:00 +5°C° 0 mm 2 mps 709 mmHg 79%
    05:00 +6°C° 0 mm 2 mps 710 mmHg 77%
    06:00 +6°C° 0 mm 2 mps 710 mmHg 75%
    07:00 +6°C° 0 mm 2 mps 710 mmHg 74%
    08:00 +7°C° 0 mm 2 mps 710 mmHg 70%
    09:00 +8°C° 0 mm 2 mps 709 mmHg 67%
    10:00 +9°C° 0 mm 2 mps 709 mmHg 64%
    11:00 +12°C° 0 mm 2 mps 708 mmHg 59%
    12:00 +13°C° 0 mm 2 mps 708 mmHg 55%
    13:00 +15°C° 0 mm 2 mps 707 mmHg 50%
    14:00 +14°C° 0 mm 3 mps 707 mmHg 48%
    15:00 +16°C° 0 mm 3 mps 707 mmHg 46%
    16:00 +15°C° 0 mm 4 mps 706 mmHg 44%
    17:00 +15°C° 0 mm 4 mps 707 mmHg 46%
    18:00 +14°C° 0 mm 4 mps 707 mmHg 48%
    19:00 +14°C° 0 mm 3 mps 708 mmHg 50%
    20:00 +13°C° 0 mm 3 mps 708 mmHg 51%
    21:00 +14°C° 0 mm 2 mps 708 mmHg 52%
    22:00 +14°C° 0 mm 2 mps 708 mmHg 53%
    23:00 +13°C° 0 mm 2 mps 708 mmHg 54%

    Tomorrow, 16 October, Wednesday

    Time Temperature Precipitation Wind Pressure Humidity
    00:00 +13°C° 0 mm 2 mps 707 mmHg 55%
    01:00 +12°C° 0 mm 2 mps 707 mmHg 57%
    02:00 +12°C° 0 mm 1 mps 707 mmHg 58%
    03:00 +11°C° 0 mm 1 mps 707 mmHg 59%
    04:00 +11°C° 0 mm 1 mps 706 mmHg 61%
    05:00 +12°C° 0 mm 1 mps 707 mmHg 57%
    06:00 +13°C° 0 mm 1 mps 707 mmHg 54%
    07:00 +14°C° 0 mm 1 mps 707 mmHg 50%
    08:00 +15°C° 0 mm 1 mps 707 mmHg 47%
    09:00 +16°C° 0 mm 1 mps 706 mmHg 44%
    10:00 +19°C° 0 mm 1 mps 706 mmHg 41%
    11:00 +20°C° 0 mm 1 mps 705 mmHg 39%
    12:00 +20°C° 0 mm 2 mps 704 mmHg 36%
    13:00 +21°C° 0 mm 2 mps 704 mmHg 33%
    14:00 +21°C° 0 mm 2 mps 703 mmHg 32%
    15:00 +23°C° 0 mm 2 mps 703 mmHg 32%
    16:00 +23°C° 0 mm 2 mps 702 mmHg 31%
    17:00 +22°C° 0 mm 3 mps 703 mmHg 32%
    18:00 +21°C° 0 mm 3 mps 704 mmHg 33%
    19:00 +21°C° 0 mm 3 mps 705 mmHg 35%
    20:00 +20°C° 0 mm 3 mps 705 mmHg 39%
    21:00 +19°C° 0 mm 3 mps 706 mmHg 42%
    22:00 +19°C° 0 mm 3 mps 706 mmHg 46%
    23:00 +18°C° 0 mm 4 mps 706 mmHg 50%

    Day after tomorrow, 17 October, Thursday

    Time Temperature Precipitation Wind Pressure Humidity
    00:00 +18°C° 0 mm 4 mps 706 mmHg 54%
    01:00 +17°C° 0 mm 4 mps 706 mmHg 58%
    02:00 +17°C° 0 mm 3 mps 706 mmHg 60%
    03:00 +16°C° 0 mm 3 mps 706 mmHg 61%
    04:00 +16°C° 0 mm 2 mps 706 mmHg 63%
    05:00 +16°C° 0 mm 3 mps 706 mmHg 60%
    06:00 +17°C° 0 mm 3 mps 707 mmHg 58%
    07:00 +18°C° 0 mm 3 mps 707 mmHg 55%
    08:00 +19°C° 0 mm 3 mps 707 mmHg 51%
    09:00 +20°C° 0 mm 3 mps 707 mmHg 47%
    10:00 +21°C° 0 mm 4 mps 707 mmHg 43%
    11:00 +22°C° 0 mm 3 mps 706 mmHg 39%
    12:00 +24°C° 0 mm 3 mps 706 mmHg 35%
    13:00 +25°C° 0 mm 2 mps 705 mmHg 31%
    14:00 +25°C° 0 mm 3 mps 705 mmHg 30%
    15:00 +26°C° 0 mm 3 mps 705 mmHg 28%
    16:00 +26°C° 0 mm 4 mps 704 mmHg 27%
    17:00 +25°C° 0 mm 4 mps 705 mmHg 28%
    18:00 +23°C° 0 mm 4 mps 706 mmHg 30%
    19:00 +24°C° 0 mm 3 mps 706 mmHg 32%
    20:00 +22°C° 0 mm 4 mps 707 mmHg 33%
    21:00 +21°C° 0 mm 4 mps 707 mmHg 34%
    22:00 +21°C° 0 mm 4 mps 708 mmHg 36%
    23:00 +20°C° 0 mm 4 mps 707 mmHg 39%

    18 October, Friday

    Time Temperature Precipitation Wind Pressure Humidity
    00:00 +20°C° 0 mm 4 mps 707 mmHg 43%
    01:00 +19°C° 0 mm 4 mps 707 mmHg 46%
    02:00 +19°C° 0 mm 4 mps 707 mmHg 48%
    03:00 +18°C° 0 mm 4 mps 707 mmHg 51%
    04:00 +18°C° 0 mm 4 mps 707 mmHg 53%
    05:00 +18°C° 0 mm 4 mps 708 mmHg 54%
    06:00 +17°C° 0 mm 5 mps 708 mmHg 55%
    07:00 +19°C° 0 mm 5 mps 708 mmHg 56%
    08:00 +20°C° 0 mm 5 mps 708 mmHg 53%
    09:00 +21°C° 0 mm 4 mps 708 mmHg 50%
    10:00 +22°C° 0 mm 4 mps 708 mmHg 47%
    11:00 +24°C° 0 mm 3 mps 708 mmHg 44%
    12:00 +25°C° 0 mm 3 mps 707 mmHg 40%
    13:00 +26°C° 0 mm 3 mps 707 mmHg 36%
    14:00 +26°C° 0 mm 3 mps 707 mmHg 35%
    15:00 +26°C° 0 mm 3 mps 707 mmHg 34%
    16:00 +26°C° 0 mm 3 mps 706 mmHg 33%
    17:00 +26°C° 0.1 mm 3 mps 707 mmHg 36%
    18:00 +25°C° 0.1 mm 3 mps 708 mmHg 40%
    19:00 +24°C° 0.1 mm 3 mps 708 mmHg 43%
    20:00 +22°C° 1.1 mm 3 mps 708 mmHg 52%
    21:00 +20°C° 1.1 mm 3 mps 708 mmHg 60%
    22:00 +19°C° 1.1 mm 3 mps 708 mmHg 68%
    23:00 +19°C° 1.4 mm 2 mps 708 mmHg 72%

    19 October, Saturday

    Time Temperature Precipitation Wind Pressure Humidity
    00:00 +18°C° 1.4 mm 2 mps 708 mmHg 75%
    01:00 +18°C° 1.4 mm 2 mps 708 mmHg 78%
    02:00 +17°C° 0.9 mm 2 mps 707 mmHg 79%
    03:00 +17°C° 0.9 mm 2 mps 707 mmHg 79%
    04:00 +17°C° 0.9 mm 2 mps 707 mmHg 80%
    05:00 +17°C° 0.6 mm 2 mps 707 mmHg 79%
    06:00 +17°C° 0.6 mm 2 mps 708 mmHg 78%
    07:00 +17°C° 0.6 mm 2 mps 708 mmHg 77%
    08:00 +18°C° 0.3 mm 2 mps 707 mmHg 73%
    09:00 +18°C° 0.3 mm 2 mps 707 mmHg 69%
    10:00 +18°C° 0.3 mm 2 mps 707 mmHg 66%
    11:00 +19°C° 0 mm 2 mps 706 mmHg 64%
    12:00 +19°C° 0 mm 2 mps 706 mmHg 63%
    13:00 +19°C° 0 mm 2 mps 705 mmHg 61%
    14:00 +19°C° 0 mm 2 mps 705 mmHg 60%
    15:00 +20°C° 0 mm 2 mps 704 mmHg 59%
    16:00 +20°C° 0 mm 2 mps 704 mmHg 58%
    17:00 +20°C° 0.2 mm 2 mps 704 mmHg 61%
    18:00 +19°C° 0.2 mm 2 mps 704 mmHg 63%
    19:00 +19°C° 0.2 mm 2 mps 704 mmHg 65%
    20:00 +19°C° 0.1 mm 3 mps 704 mmHg 63%
    21:00 +18°C° 0.1 mm 3 mps 704 mmHg 62%
    22:00 +18°C° 0.1 mm 4 mps 704 mmHg 60%
    23:00 +16°C° 0.1 mm 5 mps 704 mmHg 61%

    20 October, Sunday

    Time Temperature Precipitation Wind Pressure Humidity
    00:00 +16°C° 0.1 mm 5 mps 703 mmHg 62%
    01:00 +15°C° 0.1 mm 6 mps 703 mmHg 63%
    02:00 +15°C° 0.4 mm 4 mps 703 mmHg 67%
    03:00 +14°C° 0.4 mm 3 mps 703 mmHg 71%
    04:00 +15°C° 0.4 mm 2 mps 703 mmHg 74%
    05:00 +15°C° 0.5 mm 2 mps 704 mmHg 72%
    06:00 +15°C° 0.5 mm 1 mps 704 mmHg 70%
    07:00 +16°C° 0.5 mm 1 mps 705 mmHg 68%
    08:00 +16°C° 0.1 mm 3 mps 705 mmHg 67%
    09:00 +15°C° 0.1 mm 6 mps 705 mmHg 66%
    10:00 +16°C° 0.1 mm 9 mps 705 mmHg 65%
    11:00 +17°C° 0 mm 8 mps 705 mmHg 57%
    12:00 +20°C° 0 mm 7 mps 706 mmHg 48%
    13:00 +22°C° 0 mm 6 mps 706 mmHg 39%
    14:00 +22°C° 0 mm 5 mps 705 mmHg 37%
    15:00 +22°C° 0 mm 5 mps 705 mmHg 34%
    16:00 +23°C° 0 mm 4 mps 705 mmHg 31%
    17:00 +22°C° 0 mm 3 mps 705 mmHg 36%
    18:00 +20°C° 0 mm 2 mps 706 mmHg 40%
    19:00 +20°C° 0 mm 1 mps 706 mmHg 45%
    20:00 +20°C° 0 mm 1 mps 707 mmHg 47%
    21:00 +19°C° 0 mm 1 mps 707 mmHg 48%
    22:00 +16°C° 0 mm 0 mps 707 mmHg 50%
    23:00 +16°C° 0 mm 0 mps 707 mmHg 51%
    Show more